GFSGBSN_700_spd_090.txt.gz
Wind_Speed
51 50 47 49 48 49 47 49 49 45 43 45 43 39 37 37 37 35 33 33 31 30 29 28 26 25 25 25 21 29 22 20 21 19 16 16 15 14 22 23 23 28 31 31 31 32 33
47 51 53 45 45 51 48 49 49 49 47 45 43 40 37 37 37 36 34 31 31 30 28 27 26 23 22 24 21 28 20 17 16 17 13 12 14 15 17 18 23 24 28 28 31 29 33
53 58 52 51 54 44 45 46 47 45 45 42 40 40 39 37 35 34 31 30 28 26 23 19 18 18 20 15 19 23 22 21 17 16 15 11 13 17 15 17 22 24 26 27 31 30 32
54 52 49 48 46 49 48 46 47 45 45 42 37 38 36 35 33 30 27 24 23 20 18 18 18 19 19 18 17 18 18 19 18 19 18 19 14 18 19 19 22 24 24 28 27 24 27
54 59 53 47 44 48 49 43 45 43 45 44 37 33 32 29 28 25 21 19 18 17 16 16 16 17 17 13 11 12 11 11 9 14 19 20 22 21 14 18 24 23 31 30 31 25 26
61 64 57 56 55 51 49 47 40 40 42 46 34 31 27 25 22 20 16 14 12 12 12 10 12 11 9 4 13 11 10 10 7 8 10 15 18 17 19 21 30 23 25 27 28 23 21
59 57 62 59 60 50 46 43 40 40 40 35 26 25 23 21 17 13 11 9 10 11 8 8 11 15 14 15 21 19 19 16 13 12 15 14 15 22 20 23 24 24 29 31 29 30 31
49 57 59 63 60 54 50 39 38 38 37 26 24 22 19 15 12 11 10 8 6 9 14 13 14 14 12 9 5 8 7 14 13 17 15 15 23 19 20 22 24 26 26 28 28 26 26
63 64 66 62 60 48 39 36 36 32 23 17 16 17 14 13 12 10 7 5 5 7 13 15 12 7 6 5 5 3 5 7 16 16 20 25 19 11 21 22 24 26 24 24 25 23 27
51 68 64 53 41 37 35 36 33 22 18 17 16 16 15 13 11 8 5 3 4 6 8 7 8 6 3 4 6 6 9 6 12 18 20 25 21 26 27 23 22 28 22 22 23 25 23
67 60 48 39 33 31 33 34 23 19 18 16 17 17 15 12 9 8 4 3 3 2 3 7 6 10 3 5 6 12 10 11 11 14 16 22 19 22 29 29 24 28 19 20 22 21 24
50 42 35 33 36 35 34 31 25 19 17 19 19 16 13 11 9 6 3 3 2 2 5 5 4 3 3 5 9 9 13 14 9 15 18 26 23 22 24 22 21 23 20 20 20 22 20
27 28 31 33 29 28 25 21 19 17 20 20 17 14 12 10 7 4 1 2 1 6 4 4 3 4 7 11 13 15 15 15 17 18 21 21 23 24 26 23 19 17 16 13 10 14 12
25 26 26 23 20 20 23 21 21 22 20 20 17 13 11 9 6 3 1 4 6 1 2 1 6 11 16 14 14 12 14 19 18 17 23 25 25 20 24 31 22 23 22 16 9 9 10
19 21 22 21 28 29 22 23 25 25 22 18 16 13 10 8 5 3 2 6 5 3 3 7 14 10 10 7 7 11 14 17 12 7 5 12 17 10 10 20 24 25 20 23 22 25 16
16 19 25 30 27 23 24 23 22 21 21 18 14 12 10 6 4 2 3 6 2 6 12 6 5 6 8 10 12 13 12 10 9 8 9 11 22 18 20 16 23 25 21 18 19 4 7
18 25 27 24 25 26 27 26 23 21 19 15 13 11 9 5 4 4 5 3 5 8 12 2 5 10 11 12 13 14 14 15 8 10 13 15 12 24 15 15 22 21 27 14 11 18 4
20 23 23 24 23 23 24 25 23 21 18 14 10 7 6 4 3 4 3 6 10 5 6 3 5 5 8 10 12 14 17 16 16 10 10 13 11 18 29 23 25 18 22 27 9 6 15
23 21 22 22 22 23 24 23 22 18 15 12 10 7 5 4 5 4 12 5 4 3 3 2 4 5 7 9 13 10 9 9 11 10 10 12 6 12 17 21 24 18 22 28 20 20 10
19 20 21 22 23 24 23 21 19 17 14 12 8 4 1 2 4 9 8 4 2 8 4 6 6 8 9 9 10 11 11 15 13 15 19 20 16 16 16 24 25 29 26 22 19 11 11
20 20 20 21 22 23 22 20 18 15 12 9 7 6 5 1 2 3 3 2 2 3 4 5 5 7 7 10 13 14 13 17 14 18 21 15 16 17 25 28 31 28 25 18 23 21 7
19 19 21 22 23 21 20 19 16 13 10 8 8 6 5 7 8 5 1 1 3 3 6 4 7 9 12 16 16 20 20 18 18 16 16 13 13 19 29 22 22 29 13 8 2 5 8
17 19 21 21 21 20 19 17 14 11 9 8 6 7 10 4 3 4 3 3 2 5 6 6 8 11 14 16 20 22 23 25 25 24 23 22 16 14 18 25 14 17 14 6 5 7 5
16 19 20 20 20 19 16 14 12 10 8 7 8 9 3 6 4 3 2 3 6 7 11 12 12 14 16 18 19 25 28 28 29 29 23 22 19 15 23 32 6 8 9 11 12 12 9
17 17 18 21 19 16 14 13 11 9 8 4 7 10 11 11 5 3 2 4 8 10 13 14 15 15 18 16 19 15 14 17 24 21 20 20 17 16 12 2 14 13 8 6 4 10 4
16 19 20 19 17 15 14 12 10 9 6 4 3 8 12 14 5 6 2 6 9 11 14 12 8 10 17 15 11 10 11 10 3 3 15 18 12 19 7 2 3 5 8 1 2 3 12
17 17 19 19 16 15 13 12 11 7 6 5 7 10 11 15 5 8 6 9 8 10 12 12 10 13 11 10 14 15 14 14 4 4 11 15 16 20 13 2 7 4 8 5 1 5 15
17 17 20 19 17 15 14 13 9 7 6 5 3 11 15 16 8 5 8 11 11 9 10 10 10 9 6 9 8 10 11 7 4 1 6 9 7 3 4 1 5 7 3 4 2 9 14
19 20 21 21 18 16 15 11 9 8 8 7 3 9 12 12 5 5 8 8 10 9 8 3 5 7 6 8 9 10 20 7 5 2 2 2 5 6 6 9 1 6 9 8 9 9 10

GFSGBSN_700_spd_093.txt.gz
Wind_Speed
50 47 48 46 46 42 43 45 45 42 47 43 42 42 42 39 39 38 34 35 31 29 29 29 29 27 27 27 19 25 22 20 21 23 19 16 17 15 20 21 23 31 30 30 33 32 33
51 49 50 49 48 46 49 47 44 46 42 42 42 41 42 40 39 36 35 34 31 29 28 27 26 26 25 22 21 18 19 18 18 17 16 15 16 10 14 16 21 24 28 30 31 32 30
48 52 50 47 45 44 43 43 43 40 42 42 42 41 40 40 39 36 34 30 29 27 24 24 23 22 23 12 18 22 17 15 18 18 18 13 6 14 19 21 20 25 31 32 31 35 33
63 62 54 45 48 44 47 43 39 39 39 36 33 39 39 38 36 35 33 29 25 22 21 21 22 23 21 18 17 16 19 18 13 16 17 16 18 21 25 24 21 20 21 27 28 27 31
56 57 57 53 53 54 46 43 43 39 42 39 39 36 32 32 39 33 28 25 23 21 19 19 19 20 18 15 14 16 11 12 12 12 13 18 20 26 21 23 26 25 33 30 30 20 23
55 51 53 50 54 54 52 48 43 39 42 41 41 35 38 36 29 22 22 23 21 17 15 15 17 15 11 7 9 13 9 9 8 7 9 12 18 21 24 23 22 17 22 25 31 23 22
54 50 52 52 49 51 55 51 51 47 46 42 35 36 36 33 19 19 17 18 15 16 16 15 13 11 13 14 16 15 16 17 18 13 14 12 16 20 19 21 21 20 24 28 28 30 31
51 49 48 51 46 50 51 51 55 50 46 39 33 35 35 23 19 17 15 16 12 14 14 14 15 16 17 13 8 7 5 9 15 13 7 15 27 20 13 15 23 29 32 33 33 29 24
49 47 47 42 50 49 55 59 50 48 44 36 33 32 24 16 17 14 14 12 10 11 15 15 15 14 9 8 6 5 7 4 9 14 14 21 22 14 21 21 22 28 29 29 30 27 30
47 45 43 41 48 57 61 57 50 41 39 35 34 21 16 17 16 16 14 10 9 8 9 8 7 7 9 3 5 8 6 6 6 12 12 18 21 22 22 26 21 30 22 26 27 24 24
42 42 40 44 58 53 56 49 42 38 36 32 24 17 18 18 17 16 11 9 8 5 2 7 7 4 9 8 2 9 8 12 11 11 15 23 18 17 26 29 29 34 21 24 29 25 28
42 37 48 58 58 52 44 35 34 35 37 25 20 20 20 19 16 12 11 7 5 3 4 9 5 4 5 1 5 7 9 15 16 14 15 21 17 24 27 25 24 26 28 26 24 24 19
47 55 60 51 45 40 33 33 34 36 28 22 23 21 20 17 13 11 10 7 5 4 7 6 6 3 5 6 10 7 17 14 18 20 24 26 28 25 24 31 24 21 14 5 6 8 13
33 41 36 26 23 26 25 24 27 26 22 24 25 23 19 15 15 12 10 8 4 3 8 8 9 7 12 10 7 10 9 12 8 22 21 20 22 17 5 26 29 26 23 13 7 6 9
19 22 24 26 24 20 19 23 28 26 25 25 23 21 19 16 14 12 10 7 1 1 4 7 9 6 7 3 3 6 6 10 7 11 8 11 17 22 12 9 22 28 31 28 25 27 13
12 16 19 22 22 21 25 29 27 26 26 25 21 19 18 16 14 11 10 10 4 10 11 11 5 2 6 8 6 5 4 8 5 5 6 7 20 22 24 20 20 23 25 16 12 4 5
12 15 18 20 22 26 32 29 31 30 25 23 21 18 18 15 12 10 8 5 3 14 11 6 6 6 6 8 9 9 7 14 14 15 16 16 10 26 29 22 19 18 20 24 19 18 3
10 15 16 21 25 29 28 26 25 27 26 24 21 16 15 12 11 9 12 11 9 4 10 1 1 3 2 5 7 7 9 13 14 14 11 13 10 17 30 39 27 20 26 23 9 8 9
13 16 20 26 24 27 29 30 26 24 23 21 19 14 13 11 9 8 6 9 8 3 1 3 5 2 4 4 6 4 8 11 15 14 9 13 6 13 25 17 13 13 13 19 21 24 19
17 21 25 22 24 26 23 23 23 23 22 21 16 10 12 11 12 13 10 9 2 3 1 3 2 3 4 7 7 7 10 10 14 15 17 16 18 16 16 22 26 33 31 27 23 13 14
24 24 20 20 24 25 22 22 23 23 22 18 13 11 12 10 6 11 10 6 6 2 3 2 1 3 6 8 10 14 16 19 17 17 15 15 21 17 21 27 26 27 31 28 30 26 14
18 20 19 18 21 22 22 21 21 21 18 15 15 15 10 9 9 6 6 7 6 5 4 2 7 7 10 11 12 20 21 22 21 19 19 18 15 23 32 24 21 23 30 19 19 4 11
19 22 18 20 20 20 22 22 20 18 16 15 13 12 10 6 9 12 9 10 7 5 2 4 5 10 13 15 19 25 30 33 35 31 26 23 24 23 23 13 25 21 18 16 13 14 17
19 20 17 19 21 20 20 19 19 16 14 10 11 14 11 14 7 5 4 3 3 4 8 10 11 13 16 17 26 30 33 34 32 31 30 28 24 20 22 22 4 6 10 12 19 20 14
19 19 20 21 21 20 19 18 17 14 11 10 9 12 18 17 9 7 2 3 4 4 6 8 11 14 19 21 26 21 22 8 11 15 19 22 21 18 7 8 8 7 8 11 5 11 10
17 17 19 21 20 19 17 17 14 11 9 7 7 9 19 21 14 10 7 4 6 11 9 7 13 13 17 19 17 8 6 13 6 4 5 10 21 24 13 6 1 7 5 11 3 7 10
16 16 18 19 18 18 18 14 12 9 8 8 9 13 18 16 12 11 3 5 9 11 10 8 10 10 10 10 13 12 10 9 6 2 10 17 19 28 28 12 5 10 8 7 5 2 11
16 15 17 19 21 19 16 13 11 8 8 7 7 13 17 13 6 3 3 7 8 11 11 6 5 5 5 7 6 6 9 11 6 2 8 11 8 5 3 5 5 13 7 8 6 6 9
17 17 20 22 19 17 15 12 10 9 9 6 5 10 13 16 6 2 3 4 7 10 6 4 3 6 5 8 8 9 16 10 11 5 6 5 8 7 6 9 6 13 15 13 10 9 10

GFSGBSN_700_spd_096.txt.gz
Wind_Speed
52 51 49 46 45 44 42 41 41 37 35 40 39 39 37 34 33 32 31 32 31 31 31 31 31 30 29 27 21 25 23 23 24 24 22 20 18 19 21 20 23 30 30 25 23 24 26
54 52 51 49 45 48 45 42 40 35 38 42 38 35 35 34 33 31 30 30 28 29 30 32 31 29 27 24 22 18 20 17 21 22 18 18 15 16 20 20 20 23 25 28 28 30 32
56 54 52 53 45 45 43 40 38 38 36 34 34 34 32 29 30 32 31 28 27 26 26 29 29 28 27 14 23 20 18 15 13 16 17 15 19 23 19 22 21 22 28 31 31 32 35
57 55 54 54 53 54 47 41 44 41 41 37 36 33 33 34 36 33 31 27 29 27 24 25 26 30 26 20 22 22 18 17 13 12 16 16 20 25 24 24 23 21 26 32 30 30 32
58 58 55 53 56 59 58 52 52 41 45 37 36 38 32 35 35 30 30 30 30 26 25 23 27 27 20 19 18 18 14 13 14 13 14 17 21 26 23 25 26 27 33 30 32 25 23
56 58 57 55 53 52 51 50 43 51 44 41 35 35 33 37 29 30 29 31 27 25 26 23 26 20 14 16 14 14 8 6 8 11 11 12 14 24 26 26 22 22 27 28 28 16 19
52 54 55 54 53 50 47 42 47 44 45 44 43 42 40 42 32 33 29 27 25 24 23 22 14 9 11 10 12 11 12 13 14 15 14 13 15 20 16 19 25 26 26 28 24 19 28
49 49 52 50 50 49 44 41 46 49 45 49 37 39 40 38 33 32 28 27 23 21 18 17 22 19 15 18 17 12 11 11 17 20 14 16 21 14 10 11 14 18 24 30 32 27 25
46 46 48 48 47 46 44 40 43 43 45 41 37 35 35 38 35 31 27 21 16 16 17 15 17 18 14 15 10 11 7 2 5 11 12 14 16 7 15 17 20 24 27 29 33 30 30
41 42 45 46 44 43 40 44 46 43 41 42 41 40 34 37 31 25 19 15 15 11 9 9 10 11 14 6 4 11 7 1 3 6 6 13 5 11 16 23 22 34 24 27 31 29 30
36 40 42 40 42 40 38 41 52 44 43 49 41 32 39 38 26 21 17 16 13 7 3 7 7 9 9 9 5 2 3 4 6 6 12 13 10 10 18 22 18 29 24 28 24 25 30
31 31 39 38 40 41 43 40 51 53 45 42 37 35 33 25 21 19 18 17 12 7 6 9 6 9 9 6 7 3 7 7 10 13 13 17 13 18 15 21 22 23 21 18 22 21 15
29 33 40 40 51 55 49 43 53 51 44 37 34 30 25 23 24 21 20 18 10 7 9 11 12 11 13 10 10 9 8 13 10 10 15 23 24 21 19 23 23 25 25 7 6 4 13
39 40 44 51 47 53 54 51 42 34 33 30 29 28 28 28 24 25 20 19 7 6 11 14 17 10 3 3 2 6 8 9 14 16 16 11 11 5 8 10 15 19 21 15 4 3 5
20 16 17 22 31 31 22 20 23 24 27 30 31 30 30 24 24 22 21 13 6 10 14 16 10 6 6 6 10 6 4 2 6 11 7 9 8 12 12 18 16 16 17 22 27 25 11
21 22 20 21 20 20 20 19 20 29 33 28 29 30 25 23 24 22 19 6 8 11 6 5 6 8 7 6 4 4 7 0 3 6 7 7 18 15 21 27 21 14 16 13 15 4 7
8 9 11 12 15 16 12 18 31 31 31 31 28 28 26 23 22 19 15 9 11 10 7 6 7 9 9 4 4 3 6 7 10 11 14 15 16 22 26 20 25 26 19 17 13 18 5
9 11 13 15 17 17 19 28 30 28 27 29 27 20 24 23 20 19 16 15 10 6 5 3 5 7 4 4 6 4 5 6 10 13 16 13 11 17 26 26 26 24 25 20 11 3 11
6 8 9 11 12 19 32 33 33 33 29 27 21 22 21 21 14 18 17 13 11 8 7 6 7 7 6 7 3 4 6 7 10 13 6 11 4 9 18 6 11 7 11 13 20 16 14
9 9 10 17 26 31 32 31 26 28 29 26 24 14 20 20 16 17 15 10 10 7 5 4 7 7 4 5 7 6 10 8 11 15 10 10 9 10 12 20 22 28 29 21 16 15 17
16 11 20 28 29 27 29 31 33 30 29 24 20 14 19 20 18 15 15 11 8 7 7 7 9 5 7 6 11 13 16 20 22 18 19 12 16 17 20 18 22 28 27 25 25 27 21
26 24 20 21 24 25 27 26 28 31 27 22 16 21 18 20 15 13 12 12 9 9 7 7 8 12 12 12 14 17 21 22 24 20 15 14 15 16 32 28 25 21 23 22 21 22 23
26 23 20 22 24 23 21 23 24 24 21 17 16 17 16 16 13 14 16 15 11 7 3 2 5 9 14 18 21 23 23 26 28 30 29 27 23 17 27 23 25 24 17 16 13 8 15
20 20 18 22 20 21 22 21 21 21 20 16 16 15 14 18 14 11 12 8 5 3 1 4 6 9 14 17 21 23 29 26 24 24 27 32 27 22 24 21 6 11 8 19 18 16 15
21 16 21 18 21 20 21 21 18 18 15 15 11 13 14 17 13 9 5 9 4 3 7 10 12 15 18 20 21 16 9 3 4 5 11 17 25 15 9 11 23 21 5 3 8 17 11
20 16 18 17 19 21 19 19 18 15 14 14 13 13 16 18 14 12 8 5 1 2 5 9 11 11 12 14 12 4 4 7 5 4 1 13 16 24 10 6 4 15 10 16 15 12 12
18 20 22 22 21 21 20 17 15 15 14 12 17 18 17 13 16 10 5 0 1 3 5 3 1 2 7 6 9 4 5 7 4 3 7 13 19 30 27 9 7 20 9 12 5 1 9
14 17 20 21 21 21 19 16 14 14 12 11 14 18 20 10 11 11 5 2 2 4 5 4 3 6 5 7 4 4 6 6 9 7 7 10 6 11 19 9 4 15 8 7 7 6 8
15 17 22 23 21 19 17 16 15 12 10 8 10 14 17 16 12 7 4 3 4 5 6 5 4 6 6 9 7 7 11 8 11 9 16 9 9 4 6 8 7 12 17 14 10 8 10

GFSGBSN_700_spd_102.txt.gz
Wind_Speed
46 47 47 48 48 48 49 48 47 47 45 45 43 39 39 38 37 35 33 34 34 33 31 33 35 34 34 33 22 29 28 26 25 25 25 24 22 22 25 25 23 31 34 33 33 33 33
47 48 49 48 47 46 47 48 48 48 46 45 44 43 40 40 37 33 31 32 33 33 34 36 35 34 33 33 28 27 25 24 23 24 27 28 29 30 31 30 28 28 25 25 27 28 30
45 46 48 48 48 49 47 47 47 48 48 45 42 43 37 40 36 34 32 32 32 35 34 34 33 36 35 23 30 27 25 23 22 21 21 21 25 26 25 23 25 29 31 32 31 28 30
44 45 45 47 47 48 49 50 49 49 49 46 39 43 39 42 39 36 33 34 35 37 38 35 32 33 36 27 29 26 28 25 22 22 19 20 22 26 25 23 22 23 23 26 21 21 20
46 47 48 47 48 48 49 50 49 49 50 50 47 46 44 40 41 37 34 34 34 38 40 34 34 34 39 28 23 27 28 23 24 22 21 23 25 26 24 24 25 22 25 26 27 21 24
45 47 49 50 49 47 47 48 48 47 47 49 50 48 43 52 36 43 40 42 40 35 32 33 33 32 30 27 26 26 17 21 22 19 20 26 23 25 25 27 21 17 18 18 21 21 23
46 47 48 49 49 48 47 46 46 44 45 47 49 49 52 51 53 37 44 36 31 38 42 38 35 33 21 17 16 16 16 14 16 17 18 22 25 27 23 22 22 23 24 26 24 14 21
47 49 50 48 47 48 48 46 45 44 43 45 46 43 43 48 40 43 40 50 42 38 36 36 34 36 33 32 30 19 18 19 19 18 18 22 26 21 19 17 17 14 17 21 18 7 22
48 50 51 50 46 45 45 46 45 44 43 43 44 40 44 36 38 39 42 28 34 32 31 42 38 40 32 31 36 24 22 20 20 20 23 27 15 7 10 14 15 18 20 16 18 17 20
47 46 48 48 45 44 42 41 44 43 42 39 38 39 38 38 39 39 37 29 34 24 16 34 31 28 32 32 34 27 24 18 20 15 13 16 16 22 19 18 17 22 18 17 15 15 12
49 43 42 43 41 41 41 39 41 42 38 36 37 38 37 35 44 33 30 37 34 20 1 9 16 19 19 32 22 23 23 22 14 11 12 5 4 8 10 10 10 15 12 15 15 17 23
51 45 38 42 38 38 39 37 38 35 36 36 40 35 37 39 40 34 31 26 24 8 9 8 11 15 19 24 17 15 27 21 15 12 11 10 9 11 13 11 11 16 14 11 14 15 8
49 49 35 41 38 37 37 34 32 35 33 32 32 41 38 41 31 38 23 25 12 8 2 9 14 15 17 25 18 13 28 24 16 11 14 11 11 15 16 13 12 8 6 2 3 3 6
43 50 40 34 35 31 28 29 35 37 37 35 35 44 35 35 34 26 25 21 8 8 13 6 9 17 17 16 16 16 19 24 24 20 10 5 4 9 4 3 2 3 3 2 4 3 4
33 40 42 33 23 27 33 36 36 38 39 37 38 44 48 37 30 35 26 17 13 6 16 12 16 24 15 17 13 17 17 22 19 14 10 7 7 9 4 4 5 4 4 4 7 14 7
27 27 26 20 19 26 35 46 44 48 43 41 38 45 36 32 32 28 26 17 16 9 10 18 16 12 12 14 11 15 16 13 14 12 12 8 5 14 14 11 9 4 7 4 4 3 5
23 24 26 15 15 20 25 25 26 29 37 39 36 32 28 28 30 27 29 21 11 13 11 9 13 14 11 15 16 18 11 11 12 11 9 7 7 5 8 9 16 15 8 8 9 9 3
19 19 23 28 29 29 25 22 23 23 23 23 22 26 28 32 29 30 24 20 12 11 13 12 14 12 16 20 17 15 13 10 12 12 11 10 6 3 11 5 7 8 2 3 4 3 6
19 18 17 16 16 19 21 21 21 21 20 21 24 24 26 30 22 24 18 15 16 14 14 14 16 18 15 16 10 14 12 11 10 8 4 4 3 1 5 10 6 4 5 8 9 13 14
17 16 18 19 20 20 19 19 18 20 23 29 26 27 29 31 21 23 20 20 19 17 14 13 13 14 15 13 14 11 13 13 12 11 9 10 7 10 7 8 13 21 23 19 15 9 18
16 14 14 17 18 20 21 21 24 29 34 29 20 30 30 32 27 28 24 22 20 16 13 12 11 12 12 11 13 12 13 13 13 13 12 11 14 15 16 16 20 25 29 29 28 31 25
16 10 9 15 18 21 24 28 35 30 29 22 20 30 26 31 23 25 24 18 19 15 11 12 10 11 10 10 10 6 13 15 14 13 13 14 11 13 22 23 24 30 33 32 32 32 35
20 14 9 12 22 31 36 29 29 31 31 22 21 28 27 28 23 24 24 20 15 12 10 8 8 8 9 10 12 15 17 19 18 18 17 15 12 9 7 9 15 21 18 12 24 33 29
21 15 13 18 29 39 33 31 35 32 25 20 12 26 26 23 21 22 18 14 12 11 6 6 5 6 7 9 13 16 18 20 22 24 24 24 17 11 11 14 4 6 13 17 6 9 18
18 17 17 27 28 30 29 26 29 29 29 19 10 17 20 20 20 19 14 12 10 8 5 4 4 5 6 6 9 6 6 3 2 5 11 20 23 11 5 7 19 22 12 18 8 2 7
18 19 22 29 32 30 27 25 25 25 22 16 14 16 13 20 17 16 15 11 9 6 3 0 2 2 3 5 4 2 2 4 1 4 7 10 16 19 8 4 4 6 12 27 7 4 4
18 21 20 26 21 20 21 23 23 24 22 17 18 15 13 15 19 15 13 11 8 6 3 3 3 3 3 4 3 2 2 5 3 5 5 10 12 22 19 5 10 19 25 2 3 3 5
19 25 21 21 23 24 23 22 23 23 21 20 18 15 17 9 19 16 11 8 7 5 3 4 4 4 3 5 4 3 3 4 6 3 3 6 9 10 14 8 6 17 3 7 4 5 5
24 22 22 23 24 25 24 24 23 19 18 19 18 19 14 13 20 15 10 8 6 6 5 4 5 4 7 5 5 4 4 8 9 4 8 3 2 6 5 6 4 7 11 9 6 6 9